This is the latest recevied weather packets stored in our database for station/object DJ2DS-13. If no packets are shown the sender has not sent any weather packets the latest 1 day(s).
| Time | Temp. | Humidity | Pressure | Rain* | Wind** | Luminosity | Snow |
|---|---|---|---|---|---|---|---|
| 1778074072 | 12.78° C | 76% | 1008.8 hPa | 0 mm | - | 410 W/m² | - |
| 1778072868 | 13.33° C | 70% | 1008.7 hPa | 0 mm | - | 501 W/m² | - |
| 1778071064 | 13.89° C | 67% | 1008.6 hPa | 0 mm | - | 457 W/m² | - |
| 1778070765 | 13.33° C | 67% | 1008.6 hPa | 0 mm | - | 452 W/m² | - |
| 1778070465 | 13.89° C | 66% | 1008.5 hPa | 0 mm | - | 477 W/m² | - |
| 1778070165 | 13.89° C | 67% | 1008.5 hPa | 0 mm | - | 443 W/m² | - |
| 1778068663 | 13.33° C | 67% | 1008.5 hPa | 0 mm | - | 419 W/m² | - |
| 1778068063 | 13.89° C | 66% | 1008.5 hPa | 0 mm | - | 426 W/m² | - |
| 1778067169 | 13.33° C | 65% | 1008.5 hPa | 0 mm | - | 526 W/m² | - |
| 1778065665 | 13.33° C | 67% | 1008.4 hPa | 0 mm | - | 394 W/m² | - |
| 1778065362 | 13.33° C | 66% | 1008.4 hPa | 0 mm | - | 382 W/m² | - |
| 1778065062 | 13.33° C | 67% | 1008.3 hPa | 0 mm | - | 397 W/m² | - |
| 1778064162 | 13.33° C | 68% | 1008.3 hPa | 0 mm | - | 420 W/m² | - |
| 1778063861 | 13.33° C | 68% | 1008.3 hPa | 0 mm | - | 399 W/m² | - |
| 1778063562 | 13.33° C | 68% | 1008.2 hPa | 0 mm | - | 394 W/m² | - |
| 1778062960 | 13.33° C | 67% | 1008.2 hPa | 0 mm | - | 399 W/m² | - |
| 1778062660 | 13.33° C | 65% | 1008.2 hPa | 0 mm | - | 397 W/m² | - |
| 1778062360 | 13.33° C | 68% | 1008.2 hPa | 0 mm | - | 394 W/m² | - |
| 1778062061 | 13.33° C | 67% | 1008.1 hPa | 0 mm | - | 380 W/m² | - |
| 1778061760 | 13.33° C | 67% | 1008.2 hPa | 0 mm | - | 368 W/m² | - |
| 1778061460 | 12.78° C | 67% | 1008.1 hPa | 0 mm | - | 371 W/m² | - |
| 1778060260 | 12.78° C | 67% | 1008.1 hPa | 0 mm | - | 350 W/m² | - |
| 1778059961 | 12.22° C | 68% | 1008 hPa | 0 mm | - | 353 W/m² | - |
| 1778059661 | 12.22° C | 69% | 1008.1 hPa | 0 mm | - | 350 W/m² | - |
| 1778059361 | 12.22° C | 70% | 1008.1 hPa | 0 mm | - | 329 W/m² | - |
* Rain latest hour (hover to see other rain measurements)
** Current wind speed in m/s (hover to see current wind gust speed)